[[{"header":{"parameterUnit":"m.s-1","parameterCategory":1,"la1":30.2991,"la2":30.254,"lo1":-89.0895,"lo2":-89.0444,"dy":0.0017,"dx":0.0017,"nx":28,"ny":28,"refTime":"2024-07-17T03:00:00:Z","depth":0,"parameterNumber":2,"parameterNumberName":"U-component_of_WINDS"},"data":[0,0,0,0,0,0,0,0,0,0,0,0,0,0,0,0,0,0,0,0,0,0,0,0,0,0,0,0,0,0,0,0,0,0,0,0,0,0,0,0,0,0,0,0,0,0,0,0,0,0,0,0,0,0,0,0,0,0,0.7113,0.7114,0,0.721,0.7211,0.7212,0.7266,0.7266,0.7266,0.7267,0.7365,0.7368,0.737,0,0,0,0,0,0,0,0,0,0,0,0,0,0.6974,0.6976,0.7113,0.7114,0.7115,0.721,0.7211,0.7212,0.7266,0.7266,0.7266,0.7267,0.7364,0.7367,0.737,0,0,0,0,0,0,0,0,0,0,0,0,0,0.7049,0.6977,0.7113,0.7154,0.7158,0.7209,0.7211,0.7213,0.7266,0.7266,0.7266,0.7267,0.7363,0.7367,0.7371,0.7389,0,0,0.7382,0.7384,0,0,0,0,0,0,0,0,0.7045,0.7054,0.7146,0.7151,0.7156,0.7226,0.7198,0.7272,0.7266,0.7225,0.7267,0.7267,0.7319,0.7326,0.7344,0.7393,0.7398,0.7382,0.7385,0.7386,0.7387,0,0,0,0,0,0,0,0.7039,0.705,0.7151,0.7148,0.7154,0.7167,0.7178,0.7212,0.7269,0.7229,0.7233,0.7244,0.7321,0.734,0.7346,0.7399,0.7382,0.7386,0.7388,0.7389,0.7468,0.7468,0,0,0,0,0,0,0.7028,0.7045,0.7148,0.7154,0.71,0.7169,0.7181,0.7203,0.7269,0.7279,0.7243,0.7246,0.7334,0.7342,0.735,0.7375,0.7386,0.739,0.7392,0.7468,0.7468,0.7468,0,0,0,0,0,0,0.7025,0.7036,0.7144,0.7101,0.7116,0.7171,0.7196,0.7205,0.7224,0.728,0.729,0.7252,0.7334,0.7345,0.7379,0.738,0.7391,0.7395,0.7468,0.7468,0.7468,0.7426,0,0,0,0,0,0,0.702,0.7035,0.7042,0.7101,0.7118,0.7171,0.7196,0.7207,0.723,0.7234,0.7291,0.73,0.7335,0.7373,0.7382,0.7385,0.7398,0.7469,0.7468,0.7468,0.7428,0.7424,0.7422,0,0,0,0,0,0.7015,0.7026,0.7042,0.7055,0.7128,0.7171,0.7181,0.7221,0.723,0.7238,0.7274,0.7299,0.7378,0.7376,0.7387,0.7391,0.7469,0.7468,0.7468,0.7429,0.7425,0.7422,0,0,0,0,0,0,0.6966,0.7035,0.7053,0.7084,0.7121,0.718,0.7191,0.7215,0.7251,0.7253,0.7301,0.7313,0.7342,0.737,0.7366,0.7412,0.7426,0.7428,0.7392,0.7389,0.7386,0.7379,0.7401,0,0,0,0,0,0.6959,0.6988,0.7047,0.7068,0.7086,0.7135,0.7155,0.7183,0.7223,0.7239,0.7278,0.7316,0.735,0.7371,0.7405,0.7432,0.7445,0.744,0.7437,0.7434,0.7435,0.7451,0.745,0.7467,0.7467,0.7467,0,0,0.6945,0.6986,0.7001,0.7059,0.7092,0.7121,0.7148,0.7178,0.72,0.7244,0.7278,0.7308,0.7354,0.7384,0.7399,0.7408,0.7433,0.7434,0.7431,0.7434,0.7451,0.7449,0.7447,0.7467,0.7467,0.7467,0,0,0.6933,0.6967,0.6989,0.702,0.7069,0.7102,0.7107,0.7162,0.7184,0.7219,0.7253,0.728,0.7336,0.7368,0.7391,0.7391,0.7415,0.7401,0.7386,0.7401,0.7399,0.7398,0.7398,0.7397,0.7402,0.7402,0.7402,0,0.6908,0.6954,0.6996,0.7024,0.7049,0.7091,0.7113,0.7141,0.7198,0.7214,0.7223,0.7296,0.7329,0.7367,0.7367,0.7385,0.7392,0.7395,0.7396,0.7396,0.7395,0.7396,0.7395,0.74,0.74,0.74,0.7401,0,0.6921,0.6952,0.6964,0.7018,0.7044,0.7069,0.7115,0.7136,0.7161,0.7193,0.7228,0.727,0.7314,0.7325,0.735,0.7366,0.737,0.7387,0.7402,0.7391,0.7392,0.7392,0.7397,0.7398,0.7398,0.7399,0,0,0.6881,0.6959,0.6962,0.6987,0.7044,0.7069,0.7096,0.7138,0.7155,0.7193,0.7216,0.7264,0.728,0.7306,0.7335,0.7348,0.7345,0.7364,0.7365,0.7358,0.7366,0.7353,0.7352,0.7362,0.7362,0.7362,0.7362,0,0.6877,0.6927,0.6966,0.7001,0.703,0.7071,0.7094,0.7131,0.7161,0.719,0.7224,0.7257,0.7275,0.7292,0.7306,0.7342,0.7347,0.7343,0.7383,0.7384,0.737,0.7353,0.7339,0.7337,0.7363,0.7363,0.7363,0,0.6879,0.6916,0.6953,0.7008,0.7021,0.7041,0.7084,0.7111,0.7154,0.7175,0.7205,0.7235,0.7264,0.7277,0.7318,0.7315,0.7334,0.7354,0.7355,0.7359,0.7372,0.7357,0.7337,0.7336,0.7364,0.7364,0.7364,0,0.6845,0.6904,0.6935,0.6955,0.7019,0.7032,0.7059,0.7103,0.7126,0.7163,0.7178,0.7218,0.7239,0.7269,0.7309,0.7314,0.7346,0.7362,0.7364,0.7363,0.7368,0.7367,0.7351,0.7381,0.7381,0.7381,0.7381,0,0.6836,0.6857,0.692,0.6939,0.6964,0.7009,0.7033,0.7064,0.7102,0.7127,0.7164,0.7187,0.7238,0.7267,0.7298,0.7328,0.7337,0.7355,0.7363,0.7351,0.7349,0.7364,0.7365,0.7381,0.7381,0.7381,0.7381,0,0.6802,0.6845,0.6881,0.6939,0.6954,0.697,0.7019,0.7039,0.7071,0.7103,0.7113,0.7164,0.72,0.7242,0.7292,0.7313,0.7339,0.7352,0.7325,0.7329,0.7329,0.7328,0.7321,0.7322,0.7351,0.7351,0.7351,0,0.6793,0.6811,0.6871,0.6891,0.6917,0.6948,0.6972,0.7017,0.7041,0.7091,0.7104,0.7143,0.7177,0.7232,0.7273,0.7311,0.7324,0.7319,0.733,0.7318,0.7324,0.7322,0.7324,0.7316,0.7316,0.7315,0.7315,0,0.6773,0.6794,0.6827,0.6868,0.6895,0.693,0.6965,0.6979,0.7032,0.7056,0.7093,0.7119,0.717,0.7208,0.7251,0.7279,0.7305,0.7311,0.7314,0.7302,0.7285,0.7294,0.7316,0.7311,0.7311,0.7312,0.7312,0.7312,0.6751,0.6769,0.6814,0.685,0.6882,0.6914,0.6935,0.6971,0.7003,0.7048,0.7073,0.711,0.7152,0.7213,0.724,0.7269,0.7279,0.7282,0.7283,0.7283,0.7279,0.7281,0.7277,0.7278,0.7278,0.7278,0.7278,0,0.6733,0.6764,0.6797,0.6846,0.6874,0.6897,0.6938,0.696,0.6991,0.7029,0.7062,0.7104,0.7141,0.7186,0.7225,0.724,0.7253,0.7249,0.7248,0.7254,0.7269,0.7263,0.7238,0.7238,0.7238,0.7238,0.7238,0.7238,0.6726,0.6757,0.6783,0.683,0.6861,0.6898,0.6919,0.6949,0.698,0.7026,0.7057,0.7086,0.7126,0.7169,0.7204,0.7216,0.7229,0.7221,0.7236,0.7249,0.7253,0.7256,0.7251,0.7223,0.7223,0.7219,0.7219,0.7219]},{"header":{"parameterUnit":"m.s-1","parameterCategory":1,"la1":30.2991,"la2":30.254,"lo1":-89.0895,"lo2":-89.0444,"dy":0.0017,"dx":0.0017,"nx":28,"ny":28,"refTime":"2024-07-17T03:00:00:Z","depth":0,"parameterNumber":3,"parameterNumberName":"V-component_of_WINDS"},"data":[0,0,0,0,0,0,0,0,0,0,0,0,0,0,0,0,0,0,0,0,0,0,0,0,0,0,0,0,0,0,0,0,0,0,0,0,0,0,0,0,0,0,0,0,0,0,0,0,0,0,0,0,0,0,0,0,0,0,4.6025,4.6025,0,4.601,4.601,4.601,4.5983,4.5983,4.5982,4.5982,4.5965,4.5965,4.5965,0,0,0,0,0,0,0,0,0,0,0,0,0,4.6029,4.6029,4.6025,4.6025,4.6025,4.601,4.601,4.601,4.5983,4.5983,4.5982,4.5981,4.5965,4.5965,4.5965,0,0,0,0,0,0,0,0,0,0,0,0,0,4.6022,4.6029,4.6025,4.601,4.6008,4.601,4.601,4.601,4.5983,4.5983,4.5982,4.5981,4.5965,4.5965,4.5965,4.5981,0,0,4.5965,4.5965,0,0,0,0,0,0,0,0,4.6022,4.6022,4.6012,4.6011,4.6009,4.5998,4.6005,4.6,4.5984,4.5993,4.5982,4.5981,4.5977,4.5976,4.5974,4.598,4.5979,4.5965,4.5965,4.5965,4.5965,0,0,0,0,0,0,0,4.6023,4.6022,4.6019,4.6012,4.601,4.6003,4.6001,4.6004,4.5989,4.5992,4.599,4.5989,4.5976,4.5974,4.5974,4.5979,4.5965,4.5965,4.5965,4.5965,4.5994,4.5995,0,0,0,0,0,0,4.6026,4.6023,4.602,4.6019,4.6014,4.6004,4.6002,4.6002,4.5989,4.5986,4.5989,4.5988,4.5975,4.5974,4.5973,4.5989,4.5965,4.5965,4.5965,4.5993,4.5994,4.5995,0,0,0,0,0,0,4.6026,4.6026,4.602,4.602,4.6019,4.6004,4.6005,4.6002,4.6001,4.5987,4.5984,4.5991,4.5974,4.5973,4.5979,4.5988,4.5965,4.5965,4.5992,4.5994,4.5995,4.6021,0,0,0,0,0,0,4.6026,4.6026,4.6032,4.6021,4.6019,4.6027,4.6006,4.6003,4.6002,4.5999,4.5988,4.5985,4.5973,4.5979,4.5979,4.5987,4.5966,4.5991,4.5993,4.5994,4.6019,4.6023,4.6026,0,0,0,0,0,4.6026,4.6041,4.6033,4.6033,4.6027,4.6028,4.6027,4.6013,4.6003,4.6008,4.5999,4.5986,4.5987,4.5979,4.5979,4.5988,4.5991,4.5992,4.5994,4.6018,4.6022,4.6026,0,0,0,0,0,0,4.6053,4.6039,4.603,4.6041,4.6036,4.6023,4.603,4.6019,4.6016,4.6013,4.5996,4.5994,4.6001,4.5995,4.5987,4.6001,4.5987,4.5988,4.6005,4.6009,4.6012,4.6013,4.5966,0,0,0,0,0,4.6061,4.6063,4.605,4.6061,4.6059,4.6045,4.6045,4.6035,4.6028,4.6026,4.6017,4.6011,4.6009,4.6009,4.6007,4.6019,4.6015,4.6024,4.6028,4.6031,4.6032,4.6035,4.6039,4.6,4.6,4.6,0,0,4.6076,4.6068,4.6071,4.6066,4.6061,4.6062,4.6043,4.6046,4.6047,4.6026,4.603,4.6024,4.6015,4.6023,4.6026,4.6019,4.6042,4.6033,4.6035,4.6035,4.6037,4.6041,4.6044,4.6001,4.6001,4.6001,0,0,4.6104,4.6099,4.6106,4.6101,4.6094,4.6084,4.6086,4.6075,4.6069,4.6074,4.6057,4.6058,4.6057,4.6051,4.6048,4.6072,4.6059,4.6072,4.6089,4.6093,4.6096,4.6098,4.6105,4.6108,4.6074,4.6074,4.6074,0,4.6123,4.6126,4.6112,4.6115,4.6113,4.6094,4.6101,4.6097,4.6089,4.6087,4.6079,4.6076,4.6069,4.6075,4.608,4.6079,4.608,4.6073,4.6097,4.6099,4.6101,4.6108,4.6111,4.6075,4.6075,4.6075,4.6075,0,4.6149,4.6151,4.6158,4.615,4.6149,4.6154,4.614,4.614,4.613,4.6121,4.6125,4.6116,4.6111,4.6112,4.6103,4.6116,4.6111,4.61,4.6085,4.6107,4.6112,4.6115,4.6078,4.6077,4.6077,4.6076,0,0,4.6193,4.6177,4.618,4.6175,4.6165,4.6166,4.617,4.6165,4.6165,4.616,4.6162,4.6161,4.615,4.6147,4.6136,4.614,4.6157,4.6128,4.6127,4.6132,4.6168,4.6176,4.6179,4.6149,4.6149,4.615,4.6169,0,4.6217,4.6223,4.621,4.6219,4.6219,4.6201,4.6204,4.6198,4.6189,4.6188,4.6179,4.6177,4.6165,4.6162,4.6165,4.6154,4.6164,4.6153,4.6149,4.6149,4.615,4.6182,4.619,4.6208,4.6171,4.6171,4.6172,0,4.6246,4.6242,4.6251,4.6238,4.6238,4.6241,4.6235,4.6235,4.6227,4.622,4.6216,4.6203,4.6205,4.6191,4.6192,4.6185,4.6183,4.6177,4.6178,4.6176,4.6161,4.6179,4.6214,4.6216,4.6175,4.6175,4.6175,0,4.6275,4.6272,4.6276,4.6273,4.626,4.6262,4.6256,4.6247,4.6245,4.624,4.6238,4.6233,4.623,4.6226,4.6212,4.6203,4.6214,4.6199,4.6207,4.6207,4.6209,4.6209,4.6242,4.621,4.621,4.621,4.621,0,4.6302,4.6308,4.6289,4.6291,4.6296,4.6281,4.6287,4.6279,4.6271,4.6271,4.6256,4.6256,4.6238,4.6236,4.6225,4.6226,4.6225,4.6219,4.6216,4.622,4.622,4.6217,4.6215,4.6211,4.6211,4.621,4.621,0,4.6335,4.6323,4.6326,4.6313,4.6309,4.6314,4.6302,4.6303,4.6293,4.6293,4.6292,4.6277,4.6274,4.626,4.6253,4.6245,4.625,4.6245,4.6253,4.625,4.6258,4.6257,4.6289,4.6292,4.626,4.626,4.626,0,4.6352,4.6356,4.6343,4.6342,4.6337,4.6336,4.6333,4.6318,4.6316,4.6306,4.6308,4.6303,4.6299,4.6293,4.6281,4.6275,4.6269,4.6281,4.6268,4.6271,4.6267,4.6267,4.6266,4.6283,4.6284,4.6284,4.6284,0,4.6384,4.6377,4.6375,4.6369,4.6367,4.6362,4.6356,4.6356,4.6339,4.6337,4.6333,4.633,4.6322,4.6317,4.6309,4.6302,4.629,4.6288,4.629,4.6293,4.6297,4.6293,4.6258,4.6287,4.6287,4.6287,4.6287,4.6287,4.6408,4.641,4.6401,4.6398,4.6392,4.6387,4.6387,4.6377,4.6374,4.6367,4.6358,4.6355,4.6345,4.6333,4.6327,4.6324,4.6317,4.6319,4.632,4.632,4.6321,4.6298,4.6323,4.6322,4.6322,4.6322,4.6322,0,4.6438,4.6431,4.6428,4.642,4.6418,4.6407,4.64,4.6398,4.6395,4.6388,4.6383,4.6378,4.6373,4.636,4.6353,4.6353,4.6347,4.6352,4.6351,4.6349,4.6328,4.6327,4.6356,4.6356,4.6356,4.6356,4.6356,4.6356,4.6452,4.6455,4.6447,4.6446,4.6438,4.6436,4.6432,4.6427,4.642,4.6415,4.6411,4.6403,4.6393,4.6385,4.6379,4.6375,4.6373,4.6379,4.6373,4.6354,4.6351,4.6347,4.6346,4.6379,4.6379,4.6394,4.6394,4.6394]}]]